BCO101 EGNR-LFBO

Flight info

Callsign BCO101
Flight time N/A
Altitude 23000
Route REXAM N42 MIDJO P17 BEPHE/N0412F300 DCT OSSEP DCT ELNIF DCT ZESPE DCT KLAKI DCT MANIG/N0412F290 DCT KORER UM616 TUPAR DCT CNA DCT UVELI DCT SECHE
Aircraft A337/H-SDE3GHIJ2J3J5M1RVWXY/LB2D1

Departure

Time 2026-04-27 07:10
Airport Hawarden Airport (EGNR)

Arrival

Time N/A
Airport Toulouse-Blagnac Airport (LFBO)
Time Latitude Longitude Altitude Speed Heading
2026-04-27 06:50 53.17722 -2.97269 32 ft 0 kts 132°
2026-04-27 07:01 53.17736 -2.97293 32 ft 4 kts 132°
2026-04-27 07:02 53.17754 -2.97327 30 ft 5 kts 132°
2026-04-27 07:02 53.17773 -2.97360 32 ft 6 kts 132°
2026-04-27 07:02 53.17791 -2.97393 31 ft 6 kts 132°
2026-04-27 07:02 53.17809 -2.97426 31 ft 6 kts 132°
2026-04-27 07:03 53.17828 -2.97459 31 ft 6 kts 132°
2026-04-27 07:03 53.17842 -2.97486 31 ft 5 kts 132°
2026-04-27 07:05 53.17823 -2.97450 31 ft 9 kts 132°
2026-04-27 07:05 53.17769 -2.97400 32 ft 10 kts 187°
2026-04-27 07:05 53.17675 -2.97523 28 ft 22 kts 224°
2026-04-27 07:06 53.17647 -2.97732 28 ft 19 kts 301°
2026-04-27 07:06 53.17707 -2.97900 29 ft 16 kts 258°
2026-04-27 07:06 53.17628 -2.98031 30 ft 16 kts 219°
2026-04-27 07:06 53.17544 -2.98151 31 ft 16 kts 221°
2026-04-27 07:07 53.17460 -2.98272 33 ft 15 kts 221°
2026-04-27 07:07 53.17383 -2.98384 32 ft 14 kts 221°
2026-04-27 07:07 53.17309 -2.98491 34 ft 13 kts 221°
2026-04-27 07:07 53.17243 -2.98587 38 ft 12 kts 221°
2026-04-27 07:08 53.17197 -2.98694 36 ft 11 kts 249°
2026-04-27 07:08 53.17151 -2.98773 36 ft 6 kts 182°
2026-04-27 07:08 53.17143 -2.98744 36 ft 2 kts 85°
2026-04-27 07:08 53.17184 -2.98670 35 ft 0 kts 39°
2026-04-27 07:09 53.17194 -2.98656 38 ft 9 kts 39°
2026-04-27 07:09 53.17340 -2.98455 32 ft 57 kts 39°
2026-04-27 07:09 53.17811 -2.97772 28 ft 121 kts 40°
2026-04-27 07:09 53.18561 -2.96635 204 ft 162 kts 42°
2026-04-27 07:10 53.19423 -2.95319 530 ft 176 kts 38°
2026-04-27 07:10 53.20481 -2.93811 463 ft 215 kts 39°
2026-04-27 07:10 53.21523 -2.91889 873 ft 225 kts 57°
2026-04-27 07:10 53.22219 -2.89433 1178 ft 243 kts 75°
2026-04-27 07:11 53.22254 -2.86677 1742 ft 250 kts 99°
2026-04-27 07:11 53.21908 -2.84798 1014 ft 280 kts 110°